Regional Weather Roundup
Issued by NWS Jackson, KY

Home | Current Version | Previous Version | Graphics & Text | Print | Product List | Glossary On
Versions: 1 2 3 4 5 6 7 8 9 10 11 12 13 14 15 16 17 18 19 20 21 22 23 24 25 26 27 28 29 30 31 32 33 34 35 36 37 38 39 40 41 42 43 44 45 46 47 48 49 50
000
ASUS43 KJKL 220510
RWRJKL

EAST KENTUCKY HOURLY WEATHER ROUNDUP
NATIONAL WEATHER SERVICE JACKSON KY
100 AM EDT SUN OCT 22 2017

NOTE: "FAIR" INDICATES FEW OR NO CLOUDS BELOW 12,000 FEET WITH
NO SIGNIFICANT WEATHER AND/OR OBSTRUCTIONS TO VISIBILITY.

* THESE REPORTS ARE NOT UNDER NWS QUALITY CONTROL AND MAY NOT
  REPORT WEATHER SUCH AS PRECIPITATION AND FOG.

KYZ079-080-083-085-087-088-110-112-115-119-120-220600
...EASTERN KENTUCKY...

CITY           SKY/WX    TMP DP  RH WIND       PRES   REMARKS
JACKSON        CLOUDY    61  48  62 S3        30.24S
LONDON         CLOUDY    50  48  93 CALM      30.23F
SOMERSET*      MOCLDY    52  52 100 CALM      30.25S
MONTICELLO*    MOCLDY    51  48  89 VRB7      30.24F
WILLIAMSBURG*  CLOUDY    54  52  94 SE7       30.23F
MIDDLESBORO*   MOCLDY    51  51 100 CALM      30.27F
HARLAN APT*    PTCLDY    52  48  87 CALM      30.28S
PIKE CO APT*     N/A     63  48  59 SE8       30.25F
BIG SANDY APT* PTCLDY    63  49  60 S7        30.25F
MOREHEAD APT*  CLEAR     57  50  77 S3        30.23F
$$

KYZ035-036-041-042-044-050-067-078-099-220600
...CENTRAL KENTUCKY...

CITY           SKY/WX    TMP DP  RH WIND       PRES   REMARKS
MT STERLING*   CLOUDY    50  46  87 SW3       30.23F
FLEMING/MASON* CLOUDY    59  49  70 S5        30.22F
DANVILLE*      PTCLDY    54  48  82 CALM      30.22F
LEXINGTON      MOCLDY    60  48  64 SE7       30.21F
FRANKFORT      PTCLDY    58  48  69 SE3       30.19F
LOUISVILLE     PTCLDY    60  50  69 SE7       30.16F
LEBANON*         N/A     63  48  59 S10       30.20S
GLASGOW*       MOCLDY    63  49  62 S3        30.18F
BOWLING GREEN  CLEAR     61  53  75 CALM      30.16F
$$

KYZ091>093-OHZ055-061-077-WVZ005-015-034-035-042-220600
...SOUTHERN OHIO/WEST VIRGINIA...

CITY           SKY/WX    TMP DP  RH WIND       PRES   REMARKS
COVINGTON      PTCLDY    57  49  74 S8        30.19S
COLUMBUS       CLOUDY    63  51  65 SE3       30.20F
DAYTON         CLEAR     54  50  86 SE8       30.20S
WILMINGTON     PTCLDY    57  51  80 S3        30.20F
HUNTINGTON     PTCLDY    56  51  84 E7        30.22F
CHARLESTON     PTCLDY    52  50  93 CALM      30.26F
PINEVILLE*     PTCLDY    48  46  91 MISG      30.35S
BECKLEY        PTCLDY    59  48  67 SE6       30.33S
BLUEFIELD      CLEAR     60  46  59 S8        30.35F
LOGAN CO APT*    N/A     64  48  55 CALM      30.27F
$$

VAZ002-007-008-TNZ017-027-036-066-071-220600
...SOUTHWEST VIRGINIA/EAST TENNESSEE...

CITY           SKY/WX    TMP DP  RH WIND       PRES   REMARKS
WISE*          PTCLDY    59  45  58 S6        30.33F
JONESVILLE*      N/A     54  48  82 CALM      30.31S
ABINGDON*      PTCLDY    60  48  66 E5        30.32F
BRISTOL        CLEAR     55  49  80 CALM      30.31S
MORRISTOWN*    CLEAR     59  48  67 CALM      30.26F
SEVIERVILLE*   CLEAR     52  50  93 CALM      30.25F
KNOXVILLE      PTCLDY    57  56  96 CALM      30.25S
LAFOLLETTE*    CLEAR     50  50 100 CALM      30.29F
OAK RIDGE      PTCLDY    54  54 100 CALM      30.27F
CROSSVILLE     PTCLDY    55  48  77 S3        30.27F
NASHVILLE      MOCLDY    65  52  62 SE9       30.17F
$$

...KEY TO REMARKS...
VSB - VISIBILITY IN MILES
WCI - WIND CHILL INDEX
HX  - HEAT INDEX

$$



USA.gov is the U.S. government's official web portal to all federal, state and local government web resources and services.